Flag for U.S.A. Weather past 2 weeks in Santa Barbara, California, U.S.A.

Now
60 °F

Passing clouds.


Feels Like: 60 °F
Forecast: 38 / 57 °F
Wind: 9 mph from West

Location: Santa Barbara Municipal Airport

Current Time: Dec 27, 2014 at 3:39:01 PM

Latest Report: Dec 27, 2014 at 2:53 PM


Visibility: 10 mi

Pressure: 30.29 "Hg

Humidity: 33%

Dew point: 31 °F

Location of Santa BarbaraLocation

Historic Weather in Santa Barbara — Graph

°F

Santa Barbara temperature yesterday

Maximum temperature yesterday: 61 °F (at 11:53 AM)
Minimum temperature yesterday: 38 °F (at 6:53 AM)
Average temperature yesterday: 49 °F

Past Weeks' High & Low Weather Summary

 TemperatureHumidityPressure
High80 °F (Dec 22, 2:53 PM)96% (Dec 15, 3:53 AM)30.33 "Hg (Dec 15, 3:53 AM)
Low36 °F (Dec 27, 4:53 AM)18% (Dec 25, 2:53 PM)29.83 "Hg (Dec 24, 11:53 PM)
Average57 °F67%30.06 "Hg
* Reported Dec 12 1:53 PM — Dec 27 1:53 PM, Santa Barbara, Weather by CustomWeather, © 2014

Note: Actual official high and low records may vary slightly from our data, if they occured in-between our weather recording intervals... More about our weather records

Advertising

Santa Barbara weather history for previous 24 hours

 ConditionsComfort  
Time TempWeatherWind HumidityBarometerVisibility
1:53 PM
Dec 27
61 °FSunny.8 mph31%30.29 "Hg10 mi
12:53 PM60 °FSunny.7 mph36%30.29 "Hg10 mi
11:53 AM60 °FSunny.7 mph41%30.30 "Hg10 mi
10:53 AM60 °FSunny.3 mph41%30.33 "Hg10 mi
9:53 AM58 °FSunny.3 mph44%30.33 "Hg10 mi
8:53 AM49 °FSunny.No wind64%30.30 "Hg10 mi
7:53 AM39 °FSunny.No wind82%30.29 "Hg10 mi
6:53 AM39 °FClear.3 mph73%30.26 "Hg10 mi
5:53 AM37 °FClear.No wind82%30.25 "Hg10 mi
4:53 AM36 °FClear.No wind85%30.23 "Hg10 mi
3:53 AM39 °FClear.No wind79%30.24 "Hg10 mi
2:53 AM39 °FClear.No wind79%30.23 "Hg10 mi
1:53 AM42 °FClear.3 mph71%30.22 "Hg10 mi
12:53 AM42 °FClear.No wind68%30.21 "Hg10 mi
11:53 PM
Dec 26
42 °FClear.No wind68%30.21 "Hg10 mi
10:53 PM40 °FClear.No wind80%30.21 "Hg10 mi
9:53 PM42 °FClear.No wind79%30.19 "Hg10 mi
8:53 PM46 °FClear.No wind71%30.17 "Hg10 mi
7:53 PM47 °FClear.No wind66%30.16 "Hg10 mi
6:53 PM50 °FClear.3 mph59%30.14 "Hg10 mi
5:53 PM54 °FClear.3 mph55%30.12 "Hg10 mi
4:53 PM55 °FSunny.6 mph51%30.09 "Hg10 mi
3:53 PM59 °FSunny.10 mph48%30.09 "Hg10 mi
Weather by CustomWeather, © 2014

See weather overviewHow to use our weather pages